This demonstration page uses our WeatherBlox Daily Observations layout. Learn more.

38.89511, -77.03637

Hourly Observations for June 30, 2015

Temp ( °F °C ) Dew Point ( °F °C ) Humidity (%) Winds ( mph kmh ) Pressure ( in mb ) Visibility ( mi km ) Precip ( " mm )
12:52 am 00:52 Mostly Clear 72 22 63 17 73 73 S 6 9 29.94 1014 10 16.09344 0 0
1:52 am 01:52 Clear 73 23 64 18 74 74 S 5 7 29.94 1014 10 16.09344 0 0
2:52 am 02:52 Clear 72 22 64 18 78 78 S 5 7 29.91 1013 10 16.09344 0 0
3:52 am 03:52 Clear 72 22 64 18 78 78 SSW 3 6 29.91 1013 10 16.09344 0 0
4:52 am 04:52 Mostly Clear 72 22 66 19 83 83 SSE 6 9 29.91 1013 10 16.09344 0 0
5:52 am 05:52 Partly Cloudy 72 22 68 20 88 88 S 7 11 29.91 1013 10 16.09344 0 0
6:52 am 06:52 Mostly Cloudy 73 23 70 21 89 89 S 6 9 29.91 1013 10 16.09344 0 0
7:52 am 07:52 Mostly Cloudy 75 24 70 21 83 83 S 8 13 29.91 1013 10 16.09344 0 0
8:52 am 08:52 Cloudy 75 24 70 21 83 83 S 7 11 29.91 1013 10 16.09344 0 0
9:16 am 09:16 Cloudy with Light Rain 75 24 70 21 83 83 S 7 11 29.91 1013 10 16.09344 0 0
9:27 am 09:27 Cloudy 75 24 72 22 89 89 S 8 13 29.91 1013 10 16.09344 0.001 0.001
9:52 am 09:52 Cloudy 79 26 72 22 79 79 S 6 9 29.91 1013 10 16.09344 0.001 0.001
10:33 am 10:33 Cloudy with Light Rain 79 26 72 22 79 79 S 7 11 29.91 1013 10 16.09344 0.001 0.001
10:42 am 10:42 Mostly Cloudy with Rain 77 25 72 22 83 83 SSE 6 9 29.91 1013 7 11.265408 0 0
10:52 am 10:52 Mostly Cloudy 79 26 73 23 84 84 SSW 6 9 29.91 1013 10 16.09344 0.01 0.254
11:09 am 11:09 Partly Cloudy 81 27 73 23 79 79 SW 7 11 29.91 1013 10 16.09344 0 0
11:52 am 11:52 Partly Cloudy 82 28 73 23 74 74 S 8 13 29.91 1013 10 16.09344 0 0
12:52 pm 12:52 Mostly Cloudy 82 28 70 21 66 66 S 7 11 29.88 1012 10 16.09344 0 0
1:52 pm 13:52 Partly Cloudy 88 31 68 20 52 52 SW 15 24 29.88 1012 10 16.09344 0 0
2:52 pm 14:52 Partly Cloudy 88 31 70 21 55 55 S 12 19 29.83 1010 10 16.09344 0 0
3:52 pm 15:52 Mostly Cloudy 90 32 70 21 52 52 SSW 16 26 29.83 1010 10 16.09344 0 0
4:52 pm 16:52 Mostly Cloudy 88 31 66 19 49 49 SSW 15 24 29.77 1008 10 16.09344 0 0
5:52 pm 17:52 Mostly Cloudy 88 31 66 19 49 49 SW 18 30 29.8 1009 10 16.09344 0 0
6:52 pm 18:52 Cloudy 88 31 66 19 49 49 SSW 12 19 29.8 1009 10 16.09344 0 0
7:52 pm 19:52 Cloudy 84 29 68 20 58 58 SSW 9 15 29.8 1009 10 16.09344 0 0
8:52 pm 20:52 Mostly Cloudy 81 27 70 21 70 70 S 9 15 29.8 1009 10 16.09344 0 0
9:52 pm 21:52 Mostly Cloudy 81 27 68 20 66 66 S 8 13 29.83 1010 10 16.09344 0 0
10:52 pm 22:52 Cloudy 79 26 70 21 74 74 SSW 8 13 29.8 1009 10 16.09344 0 0
11:52 pm 23:52 Cloudy 79 26 70 21 74 74 S 7 11 29.8 1009 10 16.09344 0 0

Powered by AerisWeather